Location: Beuerbach
(48.1459°N, 10.9174°E)
Time: 04:45:01
(UTC+00:00)

Cosmos 1455 - Pass Details

Date: 16 August 2024
Orbit: 432 x 445 km, 82.5° (Epoch: 09 September)

Event Time Altitude Azimuth Distance (km) Brightness Sun altitude
Exits shadow 02:01:41 20° 146° (SSE) 1,091 3.7 -18.6°
Maximum altitude 02:03:30 35° 93° (E) 744 3.3 -18.4°
Drops below altitude 10° 02:06:39 10° 26° (NNE) 1,572 5.8 -18.1°
Sets 02:08:48 0° 18° (NNE) 2,443 6.8 -17.8°
